Location: Fort Worth, Tx
(32.7431°N, 97.3695°W)
Time: 17:29:19
(UTC-04:00)

Transit 4A - Pass Details

Date: 28 February 2024
Orbit: 871 x 972 km, 66.8° (Epoch: 21 April)

Event Time Altitude Azimuth Distance (km) Brightness Sun altitude
Rises 09:57:58 0° 350° (N) 3,480 10.6 23.0°
Reaches altitude 10° 10:01:19 10° 9° (N) 2,528 10.1 23.6°
Maximum altitude 10:05:14 18° 51° (NE) 2,000 10.1 24.3°
Drops below altitude 10° 10:09:07 10° 94° (E) 2,514 11.5 25.0°
Sets 10:12:24 0° 113° (ESE) 3,452 12.2 25.6°
